Time,TemperatureF,DewpointF,PressureIn,WindDirection,WindDirectionDegrees,WindSpeedMPH,WindSpeedGustMPH,Humidity,HourlyPrecipIn,Conditions,Clouds,dailyrainin,SoftwareType,DateUTC
2013-02-19 00:02:00,21.1,21.1,30.03,ENE,78,3.0,3.0,100,0.00,,,0.00,Wunderground v.1.13,2013-02-19 05:02:00,
2013-02-19 00:07:00,21.1,21.1,30.03,ESE,123,4.0,4.0,100,0.00,,,0.00,Wunderground v.1.13,2013-02-19 05:07:00,
2013-02-19 00:12:00,21.0,21.0,30.03,ENE,64,5.0,9.0,100,0.00,,,0.00,Wunderground v.1.13,2013-02-19 05:12:00,
2013-02-19 00:17:00,21.1,21.1,30.03,East,92,5.0,5.0,100,0.00,,,0.00,Wunderground v.1.13,2013-02-19 05:17:00,
2013-02-19 00:22:00,21.0,21.0,30.03,ESE,114,4.0,4.0,100,0.00,,,0.00,Wunderground v.1.13,2013-02-19 05:22:00,
2013-02-19 00:27:00,20.8,20.8,30.03,East,89,3.0,3.0,100,0.00,,,0.00,Wunderground v.1.13,2013-02-19 05:27:00,
2013-02-19 00:32:00,20.8,20.8,30.03,East,82,2.0,6.0,100,0.00,,,0.00,Wunderground v.1.13,2013-02-19 05:32:00,
2013-02-19 00:37:00,21.1,21.1,30.04,East,92,4.0,4.0,100,0.00,,,0.00,Wunderground v.1.13,2013-02-19 05:37:00,
2013-02-19 00:47:00,20.6,20.6,30.04,SE,124,3.0,4.0,100,0.00,,,0.00,Wunderground v.1.13,2013-02-19 05:47:00,
2013-02-19 00:52:00,20.6,20.6,30.04,East,95,3.0,5.0,100,0.00,,,0.00,Wunderground v.1.13,2013-02-19 05:52:00,
2013-02-19 00:57:00,20.6,20.6,30.04,ESE,110,4.0,4.0,100,0.00,,,0.00,Wunderground v.1.13,2013-02-19 05:57:00,
2013-02-19 01:03:00,20.5,20.5,30.04,East,80,4.0,4.0,100,0.00,,,0.00,Wunderground v.1.13,2013-02-19 06:03:00,
2013-02-19 01:07:00,20.6,20.6,30.05,ESE,109,4.0,5.0,100,0.00,,,0.00,Wunderground v.1.13,2013-02-19 06:07:00,
2013-02-19 01:12:00,20.6,20.6,30.05,ESE,109,4.0,5.0,100,0.00,,,0.00,Wunderground v.1.13,2013-02-19 06:12:00,
2013-02-19 01:22:00,20.3,20.3,30.05,ESE,123,5.0,7.0,100,0.00,,,0.00,Wunderground v.1.13,2013-02-19 06:22:00,
2013-02-19 01:27:00,20.2,20.2,30.05,ENE,66,6.0,8.0,100,0.00,,,0.00,Wunderground v.1.13,2013-02-19 06:27:00,
2013-02-19 01:32:00,20.0,20.0,30.05,ESE,106,7.0,7.0,100,0.00,,,0.00,Wunderground v.1.13,2013-02-19 06:32:00,
2013-02-19 01:37:00,19.9,19.9,30.06,ESE,104,7.0,7.0,100,0.00,,,0.00,Wunderground v.1.13,2013-02-19 06:37:00,
2013-02-19 01:42:00,19.7,19.7,30.06,East,79,5.0,6.0,100,0.00,,,0.00,Wunderground v.1.13,2013-02-19 06:42:00,
2013-02-19 01:52:00,19.5,19.5,30.06,ENE,66,3.0,6.0,100,0.00,,,0.00,Wunderground v.1.13,2013-02-19 06:52:00,
2013-02-19 01:57:00,19.5,19.5,30.06,ENE,78,2.0,5.0,100,0.00,,,0.00,Wunderground v.1.13,2013-02-19 06:57:00,
2013-02-19 02:03:00,19.5,19.5,30.06,East,97,4.0,4.0,100,0.00,,,0.00,Wunderground v.1.13,2013-02-19 07:03:00,
2013-02-19 02:12:00,19.9,19.9,30.07,SE,133,4.0,5.0,100,0.00,,,0.00,Wunderground v.1.13,2013-02-19 07:12:00,
2013-02-19 02:17:00,19.7,19.7,30.07,East,82,5.0,6.0,100,0.00,,,0.00,Wunderground v.1.13,2013-02-19 07:17:00,
2013-02-19 02:22:00,19.5,19.5,30.07,East,80,5.0,7.0,100,0.00,,,0.00,Wunderground v.1.13,2013-02-19 07:22:00,
2013-02-19 02:27:00,19.4,19.4,30.07,East,90,5.0,6.0,100,0.00,,,0.00,Wunderground v.1.13,2013-02-19 07:27:00,
2013-02-19 02:32:00,19.2,19.2,30.07,East,88,4.0,4.0,100,0.00,,,0.00,Wunderground v.1.13,2013-02-19 07:32:00,
2013-02-19 02:37:00,19.2,19.2,30.06,East,85,3.0,7.0,100,0.00,,,0.00,Wunderground v.1.13,2013-02-19 07:37:00,
2013-02-19 02:42:00,19.1,19.1,30.06,East,83,4.0,4.0,100,0.00,,,0.00,Wunderground v.1.13,2013-02-19 07:42:00,
2013-02-19 02:47:00,19.1,19.1,30.06,ENE,69,5.0,6.0,100,0.00,,,0.00,Wunderground v.1.13,2013-02-19 07:47:00,
2013-02-19 02:52:00,19.1,19.1,30.06,East,83,5.0,5.0,100,0.00,,,0.00,Wunderground v.1.13,2013-02-19 07:52:00,
2013-02-19 02:57:00,19.1,19.1,30.06,ENE,76,5.0,7.0,100,0.00,,,0.00,Wunderground v.1.13,2013-02-19 07:57:00,
2013-02-19 03:02:00,19.2,19.2,30.06,ENE,72,4.0,4.0,100,0.00,,,0.00,Wunderground v.1.13,2013-02-19 08:02:00,
2013-02-19 03:07:00,19.1,19.1,30.07,East,95,3.0,4.0,100,0.00,,,0.00,Wunderground v.1.13,2013-02-19 08:07:00,
2013-02-19 03:12:00,19.1,19.1,30.07,ESE,102,4.0,4.0,100,0.00,,,0.00,Wunderground v.1.13,2013-02-19 08:12:00,
2013-02-19 03:22:00,19.1,19.1,30.06,East,97,2.0,2.0,100,0.00,,,0.00,Wunderground v.1.13,2013-02-19 08:22:00,
2013-02-19 03:27:00,18.9,18.9,30.06,East,97,2.0,2.0,100,0.00,,,0.00,Wunderground v.1.13,2013-02-19 08:27:00,
2013-02-19 03:32:00,18.9,18.9,30.06,East,80,2.0,2.0,100,0.00,,,0.00,Wunderground v.1.13,2013-02-19 08:32:00,
2013-02-19 03:37:00,18.9,18.9,30.06,East,80,2.0,3.0,100,0.00,,,0.00,Wunderground v.1.13,2013-02-19 08:37:00,
2013-02-19 03:42:00,19.1,19.1,30.06,East,82,2.0,3.0,100,0.00,,,0.00,Wunderground v.1.13,2013-02-19 08:42:00,
2013-02-19 03:47:00,19.1,19.1,30.06,NE,54,3.0,7.0,100,0.00,,,0.00,Wunderground v.1.13,2013-02-19 08:47:00,
2013-02-19 03:52:00,19.1,19.1,30.06,ENE,71,3.0,3.0,100,0.00,,,0.00,Wunderground v.1.13,2013-02-19 08:52:00,
2013-02-19 03:57:00,19.2,19.2,30.06,ESE,102,3.0,3.0,100,0.00,,,0.00,Wunderground v.1.13,2013-02-19 08:57:00,
2013-02-19 04:03:00,19.2,19.2,30.06,NE,47,3.0,3.0,100,0.00,,,0.00,Wunderground v.1.13,2013-02-19 09:03:00,
2013-02-19 04:07:00,19.2,19.2,30.06,NE,47,1.0,1.0,100,0.00,,,0.00,Wunderground v.1.13,2013-02-19 09:07:00,
2013-02-19 04:12:00,19.2,19.2,30.06,NE,47,1.0,1.0,100,0.00,,,0.00,Wunderground v.1.13,2013-02-19 09:12:00,
2013-02-19 04:17:00,19.2,19.2,30.06,NE,47,1.0,1.0,100,0.00,,,0.00,Wunderground v.1.13,2013-02-19 09:17:00,
2013-02-19 04:22:00,18.9,18.9,30.05,NE,47,1.0,1.0,100,0.00,,,0.00,Wunderground v.1.13,2013-02-19 09:22:00,
2013-02-19 04:27:00,18.8,18.8,30.05,NE,47,0.0,0.0,100,0.00,,,0.00,Wunderground v.1.13,2013-02-19 09:27:00,
2013-02-19 04:32:00,18.6,18.6,30.05,NE,47,0.0,1.0,100,0.00,,,0.00,Wunderground v.1.13,2013-02-19 09:32:00,
2013-02-19 04:37:00,18.6,18.6,30.04,NE,47,0.0,1.0,100,0.00,,,0.00,Wunderground v.1.13,2013-02-19 09:37:00,
2013-02-19 04:42:00,18.4,18.4,30.04,NE,47,0.0,0.0,100,0.00,,,0.00,Wunderground v.1.13,2013-02-19 09:42:00,
2013-02-19 04:47:00,18.4,18.4,30.04,NE,47,1.0,1.0,100,0.00,,,0.00,Wunderground v.1.13,2013-02-19 09:47:00,
2013-02-19 04:52:00,18.4,18.4,30.03,NE,47,0.0,0.0,100,0.00,,,0.00,Wunderground v.1.13,2013-02-19 09:52:00,
2013-02-19 04:57:00,18.4,-99.9,30.03,NE,47,0.0,0.0,0,0.00,,,0.00,Wunderground v.1.13,2013-02-19 09:57:00,
2013-02-19 05:03:00,18.4,18.4,30.03,NE,47,0.0,0.0,100,0.00,,,0.00,Wunderground v.1.13,2013-02-19 10:03:00,
2013-02-19 05:07:00,18.6,18.6,30.03,NE,47,0.0,2.0,100,0.00,,,0.00,Wunderground v.1.13,2013-02-19 10:07:00,
2013-02-19 05:12:00,18.6,18.6,30.03,NE,47,1.0,1.0,100,0.00,,,0.00,Wunderground v.1.13,2013-02-19 10:12:00,
2013-02-19 05:17:00,18.8,18.8,30.03,NE,47,1.0,1.0,100,0.00,,,0.00,Wunderground v.1.13,2013-02-19 10:17:00,
2013-02-19 05:27:00,18.8,18.8,30.03,NE,47,0.0,0.0,100,0.00,,,0.00,Wunderground v.1.13,2013-02-19 10:27:00,
2013-02-19 05:32:00,18.8,18.8,30.03,NE,47,0.0,0.0,100,0.00,,,0.00,Wunderground v.1.13,2013-02-19 10:32:00,
2013-02-19 05:37:00,18.8,18.8,30.03,NE,47,0.0,0.0,100,0.00,,,0.00,Wunderground v.1.13,2013-02-19 10:37:00,
2013-02-19 05:42:00,18.6,18.6,30.03,NE,47,0.0,0.0,100,0.00,,,0.00,Wunderground v.1.13,2013-02-19 10:42:00,
2013-02-19 05:47:00,18.4,18.4,30.03,NE,47,0.0,0.0,100,0.00,,,0.00,Wunderground v.1.13,2013-02-19 10:47:00,
2013-02-19 05:52:00,18.1,18.1,30.02,NE,47,0.0,0.0,100,0.00,,,0.00,Wunderground v.1.13,2013-02-19 10:52:00,
2013-02-19 05:57:00,18.0,-99.9,30.02,NE,47,0.0,0.0,0,0.00,,,0.00,Wunderground v.1.13,2013-02-19 10:57:00,
2013-02-19 06:02:00,17.7,-99.9,30.02,NE,47,0.0,0.0,0,0.00,,,0.00,Wunderground v.1.13,2013-02-19 11:02:00,
2013-02-19 06:07:00,17.3,-99.9,30.02,NE,47,0.0,0.0,0,0.00,,,0.00,Wunderground v.1.13,2013-02-19 11:07:00,
2013-02-19 06:12:00,17.0,-99.9,30.02,NE,47,0.0,0.0,0,0.00,,,0.00,Wunderground v.1.13,2013-02-19 11:12:00,
2013-02-19 06:17:00,16.9,-99.9,30.02,NE,47,0.0,0.0,0,0.00,,,0.00,Wunderground v.1.13,2013-02-19 11:17:00,
2013-02-19 06:22:00,16.7,-99.9,30.02,NE,47,0.0,0.0,0,0.00,,,0.00,Wunderground v.1.13,2013-02-19 11:22:00,
2013-02-19 06:27:00,16.4,-99.9,30.02,NE,47,0.0,0.0,0,0.00,,,0.00,Wunderground v.1.13,2013-02-19 11:27:00,
2013-02-19 06:32:00,16.4,-99.9,30.02,NE,47,0.0,1.0,0,0.00,,,0.00,Wunderground v.1.13,2013-02-19 11:32:00,
2013-02-19 06:37:00,16.5,-99.9,30.03,East,83,1.0,1.0,0,0.00,,,0.00,Wunderground v.1.13,2013-02-19 11:37:00,
2013-02-19 06:42:00,16.7,-99.9,30.03,East,83,1.0,1.0,0,0.00,,,0.00,Wunderground v.1.13,2013-02-19 11:42:00,
2013-02-19 06:47:00,16.7,-99.9,30.03,East,83,0.0,0.0,0,0.00,,,0.00,Wunderground v.1.13,2013-02-19 11:47:00,
2013-02-19 06:52:00,16.5,-99.9,30.03,East,83,0.0,1.0,0,0.00,,,0.00,Wunderground v.1.13,2013-02-19 11:52:00,
2013-02-19 06:57:00,16.5,-99.9,30.03,East,83,1.0,1.0,0,0.00,,,0.00,Wunderground v.1.13,2013-02-19 11:57:00,
2013-02-19 07:03:00,16.5,-99.9,30.03,East,83,0.0,0.0,0,0.00,,,0.00,Wunderground v.1.13,2013-02-19 12:03:00,
2013-02-19 07:07:00,16.5,-99.9,30.02,East,83,0.0,0.0,0,0.00,,,0.00,Wunderground v.1.13,2013-02-19 12:07:00,
2013-02-19 07:12:00,16.5,-99.9,30.02,East,79,0.0,1.0,0,0.00,,,0.00,Wunderground v.1.13,2013-02-19 12:12:00,
2013-02-19 07:22:00,16.9,-99.9,30.02,East,79,0.0,2.0,0,0.00,,,0.00,Wunderground v.1.13,2013-02-19 12:22:00,
2013-02-19 07:27:00,17.2,-99.9,30.02,East,80,1.0,1.0,0,0.00,,,0.00,Wunderground v.1.13,2013-02-19 12:27:00,
2013-02-19 07:32:00,17.3,-99.9,30.02,East,80,1.0,2.0,0,0.00,,,0.00,Wunderground v.1.13,2013-02-19 12:32:00,
2013-02-19 07:37:00,17.5,-99.9,30.01,East,80,2.0,2.0,0,0.00,,,0.00,Wunderground v.1.13,2013-02-19 12:37:00,
2013-02-19 07:42:00,17.5,-99.9,30.01,East,79,1.0,1.0,0,0.00,,,0.00,Wunderground v.1.13,2013-02-19 12:42:00,
2013-02-19 07:47:00,17.7,-99.9,30.01,East,80,0.0,0.0,0,0.00,,,0.00,Wunderground v.1.13,2013-02-19 12:47:00,
2013-02-19 07:52:00,18.0,-99.9,30.01,East,79,0.0,0.0,0,0.00,,,0.00,Wunderground v.1.13,2013-02-19 12:52:00,
2013-02-19 07:57:00,18.9,-99.9,30.01,East,79,0.0,0.0,0,0.00,,,0.00,Wunderground v.1.13,2013-02-19 12:57:00,
2013-02-19 08:03:00,20.2,20.2,30.01,East,79,0.0,0.0,100,0.00,,,0.00,Wunderground v.1.13,2013-02-19 13:03:00,
2013-02-19 08:07:00,20.5,20.5,30.00,East,80,0.0,1.0,100,0.00,,,0.00,Wunderground v.1.13,2013-02-19 13:07:00,
2013-02-19 08:12:00,20.2,20.2,30.00,East,79,0.0,0.0,100,0.00,,,0.00,Wunderground v.1.13,2013-02-19 13:12:00,
2013-02-19 08:17:00,20.2,20.2,30.00,East,79,1.0,1.0,100,0.00,,,0.00,Wunderground v.1.13,2013-02-19 13:17:00,
2013-02-19 08:22:00,21.1,21.1,30.00,East,79,1.0,1.0,100,0.00,,,0.00,Wunderground v.1.13,2013-02-19 13:22:00,
2013-02-19 08:27:00,22.2,22.2,30.00,East,79,0.0,0.0,100,0.00,,,0.00,Wunderground v.1.13,2013-02-19 13:27:00,
2013-02-19 08:37:00,23.6,23.6,30.00,East,79,0.0,0.0,100,0.00,,,0.00,Wunderground v.1.13,2013-02-19 13:37:00,
2013-02-19 08:42:00,24.2,24.2,30.00,East,80,0.0,0.0,100,0.00,,,0.00,Wunderground v.1.13,2013-02-19 13:42:00,
2013-02-19 08:52:00,25.1,25.1,30.00,East,79,0.0,0.0,100,0.00,,,0.00,Wunderground v.1.13,2013-02-19 13:52:00,
2013-02-19 08:57:00,25.4,25.4,30.00,East,80,0.0,0.0,100,0.00,,,0.00,Wunderground v.1.13,2013-02-19 13:57:00,
2013-02-19 09:03:00,26.0,26.0,30.00,East,79,0.0,0.0,100,0.00,,,0.00,Wunderground v.1.13,2013-02-19 14:03:00,
2013-02-19 09:07:00,26.4,26.4,29.98,East,79,0.0,0.0,100,0.00,,,0.00,Wunderground v.1.13,2013-02-19 14:07:00,
2013-02-19 09:12:00,27.0,27.0,29.98,East,79,0.0,0.0,100,0.00,,,0.00,Wunderground v.1.13,2013-02-19 14:12:00,
2013-02-19 09:17:00,27.9,27.9,29.98,East,80,0.0,2.0,100,0.00,,,0.00,Wunderground v.1.13,2013-02-19 14:17:00,
2013-02-19 09:22:00,28.2,28.2,29.98,East,79,1.0,2.0,100,0.00,,,0.00,Wunderground v.1.13,2013-02-19 14:22:00,
2013-02-19 09:27:00,28.2,28.2,29.98,East,79,1.0,1.0,100,0.00,,,0.00,Wunderground v.1.13,2013-02-19 14:27:00,
2013-02-19 09:32:00,28.7,28.7,29.98,East,80,0.0,0.0,100,0.00,,,0.00,Wunderground v.1.13,2013-02-19 14:32:00,
2013-02-19 09:37:00,29.1,29.1,29.98,East,79,0.0,1.0,100,0.00,,,0.00,Wunderground v.1.13,2013-02-19 14:37:00,
2013-02-19 09:42:00,29.5,29.5,29.98,East,80,0.0,0.0,100,0.00,,,0.00,Wunderground v.1.13,2013-02-19 14:42:00,
2013-02-19 09:47:00,30.6,30.6,29.98,North,1,0.0,2.0,100,0.00,,,0.00,Wunderground v.1.13,2013-02-19 14:47:00,
2013-02-19 09:52:00,30.6,30.6,29.97,North,1,1.0,3.0,100,0.00,,,0.00,Wunderground v.1.13,2013-02-19 14:52:00,
2013-02-19 09:57:00,30.3,30.3,29.97,NW,325,2.0,2.0,100,0.00,,,0.00,Wunderground v.1.13,2013-02-19 14:57:00,
2013-02-19 10:02:00,30.1,30.1,29.97,NW,306,2.0,2.0,100,0.00,,,0.00,Wunderground v.1.13,2013-02-19 15:02:00,
2013-02-19 10:07:00,30.1,30.1,29.96,NW,309,2.0,3.0,100,0.00,,,0.00,Wunderground v.1.13,2013-02-19 15:07:00,
2013-02-19 10:12:00,30.1,30.1,29.96,NW,309,2.0,2.0,100,0.00,,,0.00,Wunderground v.1.13,2013-02-19 15:12:00,
2013-02-19 10:17:00,30.6,30.6,29.96,NNW,328,2.0,2.0,100,0.00,,,0.00,Wunderground v.1.13,2013-02-19 15:17:00,
2013-02-19 10:22:00,30.9,30.9,29.95,WNW,298,2.0,3.0,100,0.00,,,0.00,Wunderground v.1.13,2013-02-19 15:22:00,
2013-02-19 10:27:00,30.6,30.6,29.95,NW,309,3.0,5.0,100,0.00,,,0.00,Wunderground v.1.13,2013-02-19 15:27:00,
2013-02-19 10:32:00,30.7,30.7,29.95,NW,318,4.0,4.0,100,0.00,,,0.00,Wunderground v.1.13,2013-02-19 15:32:00,
2013-02-19 10:37:00,31.2,31.2,29.95,NW,306,2.0,4.0,100,0.00,,,0.00,Wunderground v.1.13,2013-02-19 15:37:00,
2013-02-19 10:42:00,31.5,31.5,29.95,NW,306,2.0,2.0,100,0.00,,,0.00,Wunderground v.1.13,2013-02-19 15:42:00,
2013-02-19 10:47:00,31.8,31.8,29.95,NW,306,2.0,2.0,100,0.00,,,0.00,Wunderground v.1.13,2013-02-19 15:47:00,
2013-02-19 10:52:00,31.9,31.9,29.93,NNW,335,2.0,2.0,100,0.00,,,0.00,Wunderground v.1.13,2013-02-19 15:52:00,
2013-02-19 10:57:00,32.4,32.4,29.93,WNW,298,2.0,2.0,100,0.00,,,0.00,Wunderground v.1.13,2013-02-19 15:57:00,
2013-02-19 11:02:00,32.4,32.4,29.93,WNW,287,3.0,3.0,100,0.00,,,0.00,Wunderground v.1.13,2013-02-19 16:02:00,
2013-02-19 11:07:00,32.2,32.2,29.94,WNW,284,3.0,3.0,100,0.00,,,0.00,Wunderground v.1.13,2013-02-19 16:07:00,
2013-02-19 11:12:00,32.7,32.7,29.94,WNW,284,1.0,1.0,100,0.00,,,0.00,Wunderground v.1.13,2013-02-19 16:12:00,
2013-02-19 11:17:00,33.1,33.1,29.94,WNW,284,1.0,1.0,100,0.00,,,0.00,Wunderground v.1.13,2013-02-19 16:17:00,
2013-02-19 11:22:00,34.0,34.0,29.94,WNW,284,1.0,2.0,100,0.00,,,0.00,Wunderground v.1.13,2013-02-19 16:22:00,
2013-02-19 11:27:00,34.7,34.7,29.94,WNW,284,1.0,1.0,100,0.00,,,0.00,Wunderground v.1.13,2013-02-19 16:27:00,
2013-02-19 11:32:00,34.9,34.9,29.94,West,260,1.0,2.0,100,0.00,,,0.00,Wunderground v.1.13,2013-02-19 16:32:00,
2013-02-19 11:37:00,35.2,35.2,29.91,West,278,1.0,1.0,100,0.00,,,0.00,Wunderground v.1.13,2013-02-19 16:37:00,
2013-02-19 11:42:00,35.2,35.2,29.91,West,265,1.0,2.0,100,0.00,,,0.00,Wunderground v.1.13,2013-02-19 16:42:00,
2013-02-19 11:47:00,35.2,35.2,29.91,WNW,282,2.0,2.0,100,0.00,,,0.00,Wunderground v.1.13,2013-02-19 16:47:00,
2013-02-19 11:52:00,35.6,35.6,29.90,West,261,2.0,3.0,100,0.00,,,0.00,Wunderground v.1.13,2013-02-19 16:52:00,
2013-02-19 11:57:00,35.9,35.9,29.90,WNW,285,2.0,4.0,100,0.00,,,0.00,Wunderground v.1.13,2013-02-19 16:57:00,
2013-02-19 12:03:00,36.5,36.5,29.90,West,267,2.0,2.0,100,0.00,,,0.00,Wunderground v.1.13,2013-02-19 17:03:00,
2013-02-19 12:12:00,38.2,38.2,29.88,West,267,1.0,2.0,100,0.00,,,0.00,Wunderground v.1.13,2013-02-19 17:12:00,
2013-02-19 12:22:00,39.1,39.1,29.88,West,264,1.0,1.0,100,0.00,,,0.00,Wunderground v.1.13,2013-02-19 17:22:00,
2013-02-19 12:27:00,38.8,38.8,29.88,SW,236,2.0,3.0,100,0.00,,,0.00,Wunderground v.1.13,2013-02-19 17:27:00,
2013-02-19 12:32:00,38.8,38.8,29.88,NW,305,4.0,4.0,100,0.00,,,0.00,Wunderground v.1.13,2013-02-19 17:32:00,
2013-02-19 12:37:00,38.9,38.9,29.86,NNW,329,4.0,4.0,100,0.00,,,0.00,Wunderground v.1.13,2013-02-19 17:37:00,
2013-02-19 12:42:00,38.9,38.9,29.86,West,263,3.0,3.0,100,0.00,,,0.00,Wunderground v.1.13,2013-02-19 17:42:00,
2013-02-19 12:47:00,38.9,38.9,29.86,SW,227,4.0,4.0,100,0.00,,,0.00,Wunderground v.1.13,2013-02-19 17:47:00,
2013-02-19 12:52:00,39.1,39.1,29.85,SW,230,4.0,4.0,100,0.00,,,0.00,Wunderground v.1.13,2013-02-19 17:52:00,
2013-02-19 12:57:00,39.3,39.3,29.85,West,272,4.0,6.0,100,0.00,,,0.00,Wunderground v.1.13,2013-02-19 17:57:00,
2013-02-19 13:03:00,39.5,39.5,29.85,NW,318,4.0,4.0,100,0.00,,,0.00,Wunderground v.1.13,2013-02-19 18:03:00,
2013-02-19 13:12:00,39.6,39.6,29.83,WNW,295,4.0,4.0,100,0.00,,,0.00,Wunderground v.1.13,2013-02-19 18:12:00,
2013-02-19 13:17:00,39.6,39.6,29.83,NW,313,4.0,4.0,100,0.00,,,0.00,Wunderground v.1.13,2013-02-19 18:17:00,
2013-02-19 13:27:00,39.3,39.3,29.83,NW,319,4.0,4.0,100,0.00,,,0.00,Wunderground v.1.13,2013-02-19 18:27:00,
2013-02-19 13:32:00,39.5,39.5,29.83,WNW,295,3.0,3.0,100,0.00,,,0.00,Wunderground v.1.13,2013-02-19 18:32:00,
2013-02-19 13:37:00,39.5,39.5,29.82,NW,311,3.0,6.0,100,0.00,,,0.00,Wunderground v.1.13,2013-02-19 18:37:00,
2013-02-19 13:42:00,39.3,39.3,29.82,NW,312,4.0,4.0,100,0.00,,,0.00,Wunderground v.1.13,2013-02-19 18:42:00,
2013-02-19 13:47:00,39.5,39.5,29.82,NW,304,4.0,5.0,100,0.00,,,0.00,Wunderground v.1.13,2013-02-19 18:47:00,
2013-02-19 13:52:00,39.5,39.5,29.83,WSW,240,3.0,4.0,100,0.00,,,0.00,Wunderground v.1.13,2013-02-19 18:52:00,
2013-02-19 13:57:00,39.6,39.6,29.83,West,265,3.0,5.0,100,0.00,,,0.00,Wunderground v.1.13,2013-02-19 18:57:00,
2013-02-19 14:02:00,39.6,39.6,29.83,West,260,3.0,7.0,100,0.00,,,0.00,Wunderground v.1.13,2013-02-19 19:02:00,
2013-02-19 14:07:00,39.5,39.5,29.80,NW,304,3.0,3.0,100,0.00,,,0.00,Wunderground v.1.13,2013-02-19 19:07:00,
2013-02-19 14:12:00,39.6,39.6,29.80,WNW,292,4.0,7.0,100,0.00,,,0.00,Wunderground v.1.13,2013-02-19 19:12:00,
2013-02-19 14:17:00,39.6,39.6,29.80,WNW,289,5.0,7.0,100,0.00,,,0.00,Wunderground v.1.13,2013-02-19 19:17:00,
2013-02-19 14:22:00,39.6,39.6,29.80,NW,312,6.0,6.0,100,0.00,,,0.00,Wunderground v.1.13,2013-02-19 19:22:00,
2013-02-19 14:27:00,39.6,39.6,29.80,NW,315,6.0,6.0,100,0.00,,,0.00,Wunderground v.1.13,2013-02-19 19:27:00,
2013-02-19 14:32:00,39.6,39.6,29.80,WNW,289,5.0,6.0,100,0.00,,,0.00,Wunderground v.1.13,2013-02-19 19:32:00,
2013-02-19 14:37:00,39.5,39.5,29.79,NW,312,5.0,5.0,100,0.00,,,0.00,Wunderground v.1.13,2013-02-19 19:37:00,
2013-02-19 14:42:00,39.5,39.5,29.79,NW,306,4.0,4.0,100,0.00,,,0.00,Wunderground v.1.13,2013-02-19 19:42:00,
2013-02-19 14:47:00,39.5,39.5,29.79,WNW,299,3.0,4.0,100,0.00,,,0.00,Wunderground v.1.13,2013-02-19 19:47:00,
2013-02-19 14:52:00,39.5,39.5,29.79,NW,311,4.0,7.0,100,0.00,,,0.00,Wunderground v.1.13,2013-02-19 19:52:00,
2013-02-19 14:57:00,39.5,39.5,29.79,WNW,294,5.0,5.0,100,0.00,,,0.00,Wunderground v.1.13,2013-02-19 19:57:00,
2013-02-19 15:03:00,39.5,39.5,29.79,WNW,299,4.0,5.0,100,0.00,,,0.00,Wunderground v.1.13,2013-02-19 20:03:00,
2013-02-19 15:12:00,39.6,39.6,29.77,NW,311,4.0,6.0,100,0.00,,,0.00,Wunderground v.1.13,2013-02-19 20:12:00,
2013-02-19 15:17:00,39.8,39.8,29.77,West,280,4.0,4.0,100,0.00,,,0.00,Wunderground v.1.13,2013-02-19 20:17:00,
2013-02-19 15:22:00,39.8,39.8,29.76,WNW,292,4.0,4.0,100,0.00,,,0.00,Wunderground v.1.13,2013-02-19 20:22:00,
2013-02-19 15:27:00,39.8,39.8,29.76,NW,306,5.0,7.0,100,0.00,,,0.00,Wunderground v.1.13,2013-02-19 20:27:00,
2013-02-19 15:32:00,39.8,39.8,29.76,WSW,256,6.0,6.0,100,0.00,,,0.00,Wunderground v.1.13,2013-02-19 20:32:00,
2013-02-19 15:37:00,39.6,39.6,29.73,West,280,5.0,6.0,100,0.00,,,0.00,Wunderground v.1.13,2013-02-19 20:37:00,
2013-02-19 15:42:00,39.8,39.8,29.73,NNW,330,5.0,5.0,100,0.00,,,0.00,Wunderground v.1.13,2013-02-19 20:42:00,
2013-02-19 15:47:00,39.8,39.8,29.73,West,281,4.0,5.0,100,0.00,,,0.00,Wunderground v.1.13,2013-02-19 20:47:00,
2013-02-19 15:52:00,39.8,39.8,29.73,WNW,301,4.0,8.0,100,0.00,,,0.00,Wunderground v.1.13,2013-02-19 20:52:00,
2013-02-19 16:02:00,39.9,39.9,29.73,NW,305,5.0,7.0,100,0.00,,,0.00,Wunderground v.1.13,2013-02-19 21:02:00,
2013-02-19 16:07:00,40.1,40.1,29.71,NNW,330,6.0,6.0,100,0.00,,,0.00,Wunderground v.1.13,2013-02-19 21:07:00,
2013-02-19 16:12:00,40.1,40.1,29.71,NNW,330,6.0,6.0,100,0.00,,,0.00,Wunderground v.1.13,2013-02-19 21:12:00,
2013-02-19 16:17:00,40.1,40.1,29.71,WNW,291,6.0,6.0,100,0.00,,,0.00,Wunderground v.1.13,2013-02-19 21:17:00,
2013-02-19 16:22:00,40.1,40.1,29.71,WNW,291,6.0,6.0,100,0.00,,,0.00,Wunderground v.1.13,2013-02-19 21:22:00,
2013-02-19 16:27:00,40.1,40.1,29.71,WNW,298,1.0,1.0,100,0.00,,,0.00,Wunderground v.1.13,2013-02-19 21:27:00,
2013-02-19 16:32:00,39.9,-99.9,29.71,WNW,298,1.0,1.0,0,0.00,,,0.00,Wunderground v.1.13,2013-02-19 21:32:00,
2013-02-19 16:37:00,39.8,-99.9,29.71,WNW,298,1.0,1.0,0,0.00,,,0.00,Wunderground v.1.13,2013-02-19 21:37:00,
2013-02-19 16:42:00,39.8,-99.9,29.71,WNW,298,0.0,0.0,0,0.00,,,0.00,Wunderground v.1.13,2013-02-19 21:42:00,
2013-02-19 16:47:00,39.6,-99.9,29.71,WNW,298,1.0,1.0,0,0.00,,,0.00,Wunderground v.1.13,2013-02-19 21:47:00,
2013-02-19 16:52:00,39.5,-99.9,29.71,NE,52,0.0,0.0,0,0.00,,,0.00,Wunderground v.1.13,2013-02-19 21:52:00,
2013-02-19 16:57:00,39.3,-99.9,29.71,NE,52,0.0,0.0,0,0.00,,,0.00,Wunderground v.1.13,2013-02-19 21:57:00,
2013-02-19 17:02:00,38.9,-99.9,29.71,NE,52,0.0,0.0,255,0.00,,,0.00,Wunderground v.1.13,2013-02-19 22:02:00,
2013-02-19 17:07:00,38.6,-99.9,29.70,NE,52,0.0,0.0,255,0.00,,,0.00,Wunderground v.1.13,2013-02-19 22:07:00,
2013-02-19 17:12:00,38.2,-99.9,29.70,NE,52,0.0,0.0,0,0.00,,,0.00,Wunderground v.1.13,2013-02-19 22:12:00,
2013-02-19 17:17:00,37.9,-55.0,29.70,NE,52,0.0,0.0,1,0.00,,,0.00,Wunderground v.1.13,2013-02-19 22:17:00,
2013-02-19 17:22:00,37.8,-36.6,29.70,NE,52,0.0,0.0,3,0.00,,,0.00,Wunderground v.1.13,2013-02-19 22:22:00,
2013-02-19 17:27:00,37.6,-24.1,29.70,NE,52,0.0,0.0,6,0.00,,,0.00,Wunderground v.1.13,2013-02-19 22:27:00,
2013-02-19 17:32:00,37.6,-18.6,29.70,NE,52,0.0,0.0,8,0.00,,,0.00,Wunderground v.1.13,2013-02-19 22:32:00,
2013-02-19 17:37:00,37.5,-12.4,29.68,NE,52,0.0,0.0,11,0.00,,,0.00,Wunderground v.1.13,2013-02-19 22:37:00,
2013-02-19 17:42:00,37.2,-7.7,29.68,NE,52,0.0,0.0,14,0.00,,,0.00,Wunderground v.1.13,2013-02-19 22:42:00,
2013-02-19 17:47:00,37.0,1.6,29.68,NE,52,0.0,0.0,22,0.00,,,0.00,Wunderground v.1.13,2013-02-19 22:47:00,
2013-02-19 17:52:00,36.9,3.4,29.68,NE,52,0.0,0.0,24,0.00,,,0.00,Wunderground v.1.13,2013-02-19 22:52:00,
2013-02-19 17:57:00,36.8,13.5,29.68,NE,52,0.0,0.0,38,0.00,,,0.00,Wunderground v.1.13,2013-02-19 22:57:00,
2013-02-19 18:03:00,36.5,13.3,29.68,NE,52,1.0,1.0,38,0.00,,,0.00,Wunderground v.1.13,2013-02-19 23:03:00,
2013-02-19 18:12:00,36.3,13.1,29.67,NE,52,0.0,0.0,38,0.00,,,0.00,Wunderground v.1.13,2013-02-19 23:12:00,
2013-02-19 18:17:00,36.2,13.0,29.67,NE,52,0.0,0.0,38,0.00,,,0.00,Wunderground v.1.13,2013-02-19 23:17:00,
2013-02-19 18:22:00,36.2,13.0,29.67,NE,52,0.0,0.0,38,0.00,,,0.00,Wunderground v.1.13,2013-02-19 23:22:00,
2013-02-19 18:27:00,36.0,27.8,29.67,NE,52,0.0,0.0,72,0.00,,,0.00,Wunderground v.1.13,2013-02-19 23:27:00,
2013-02-19 18:32:00,35.9,27.7,29.67,NE,52,0.0,0.0,72,0.00,,,0.00,Wunderground v.1.13,2013-02-19 23:32:00,
2013-02-19 18:37:00,35.9,27.7,29.65,NE,52,0.0,0.0,72,0.00,,,0.00,Wunderground v.1.13,2013-02-19 23:37:00,
2013-02-19 18:42:00,35.9,27.7,29.65,NE,52,0.0,0.0,72,0.00,,,0.00,Wunderground v.1.13,2013-02-19 23:42:00,
2013-02-19 18:47:00,35.8,27.7,29.65,NE,52,0.0,0.0,72,0.00,,,0.00,Wunderground v.1.13,2013-02-19 23:47:00,
2013-02-19 18:52:00,35.8,27.7,29.65,NE,52,0.0,0.0,72,0.00,,,0.00,Wunderground v.1.13,2013-02-19 23:52:00,
2013-02-19 18:57:00,35.6,27.5,29.65,NE,52,0.0,0.0,72,0.00,,,0.00,Wunderground v.1.13,2013-02-19 23:57:00,
2013-02-19 19:03:00,35.6,27.5,29.65,NE,52,0.0,0.0,72,0.00,,,0.00,Wunderground v.1.13,2013-02-20 00:03:00,
2013-02-19 19:12:00,35.5,30.8,29.64,NE,52,0.0,0.0,83,0.00,,,0.00,Wunderground v.1.13,2013-02-20 00:12:00,
2013-02-19 19:17:00,35.5,31.1,29.64,NE,52,0.0,0.0,84,0.00,,,0.00,Wunderground v.1.13,2013-02-20 00:17:00,
2013-02-19 19:22:00,35.3,31.2,29.62,NE,52,0.0,0.0,85,0.00,,,0.00,Wunderground v.1.13,2013-02-20 00:22:00,
2013-02-19 19:27:00,35.2,31.1,29.62,NE,52,0.0,0.0,85,0.00,,,0.00,Wunderground v.1.13,2013-02-20 00:27:00,
2013-02-19 19:32:00,35.2,31.4,29.62,NE,52,0.0,0.0,86,0.00,,,0.00,Wunderground v.1.13,2013-02-20 00:32:00,
2013-02-19 19:37:00,35.0,31.5,29.62,NE,52,0.0,0.0,87,0.00,,,0.00,Wunderground v.1.13,2013-02-20 00:37:00,
2013-02-19 19:42:00,35.2,32.0,29.62,NE,52,0.0,0.0,88,0.00,,,0.00,Wunderground v.1.13,2013-02-20 00:42:00,
2013-02-19 19:47:00,35.0,32.1,29.62,NE,52,0.0,0.0,89,0.00,,,0.00,Wunderground v.1.13,2013-02-20 00:47:00,
2013-02-19 19:52:00,35.0,32.4,29.60,NE,52,0.0,0.0,90,0.00,,,0.00,Wunderground v.1.13,2013-02-20 00:52:00,
2013-02-19 19:57:00,35.2,32.8,29.60,NE,52,0.0,0.0,91,0.00,,,0.00,Wunderground v.1.13,2013-02-20 00:57:00,
2013-02-19 20:03:00,35.2,32.8,29.60,NE,52,0.0,0.0,91,0.00,,,0.00,Wunderground v.1.13,2013-02-20 01:03:00,
2013-02-19 20:07:00,35.0,32.6,29.60,NE,52,0.0,0.0,91,0.00,,,0.00,Wunderground v.1.13,2013-02-20 01:07:00,
2013-02-19 20:12:00,35.0,32.6,29.60,NE,52,0.0,0.0,91,0.00,,,0.00,Wunderground v.1.13,2013-02-20 01:12:00,
2013-02-19 20:17:00,34.9,32.8,29.60,NE,52,0.0,0.0,92,0.00,,,0.00,Wunderground v.1.13,2013-02-20 01:17:00,
2013-02-19 20:22:00,34.9,32.8,29.59,NE,52,0.0,0.0,92,0.00,,,0.00,Wunderground v.1.13,2013-02-20 01:22:00,
2013-02-19 20:27:00,34.7,32.6,29.59,NE,52,0.0,0.0,92,0.00,,,0.00,Wunderground v.1.13,2013-02-20 01:27:00,
2013-02-19 20:32:00,34.7,32.6,29.59,NE,52,0.0,0.0,92,0.00,,,0.00,Wunderground v.1.13,2013-02-20 01:32:00,
2013-02-19 20:37:00,34.7,32.9,29.57,NE,52,0.0,0.0,93,0.00,,,0.00,Wunderground v.1.13,2013-02-20 01:37:00,
2013-02-19 20:42:00,34.7,33.2,29.57,NE,52,0.0,0.0,94,0.00,,,0.00,Wunderground v.1.13,2013-02-20 01:42:00,
2013-02-19 20:47:00,34.9,33.6,29.57,NE,52,0.0,0.0,95,0.00,,,0.00,Wunderground v.1.13,2013-02-20 01:47:00,
2013-02-19 20:52:00,35.0,33.7,29.57,NE,52,0.0,0.0,95,0.00,,,0.00,Wunderground v.1.13,2013-02-20 01:52:00,
2013-02-19 20:57:00,35.0,33.7,29.57,NE,52,0.0,0.0,95,0.00,,,0.00,Wunderground v.1.13,2013-02-20 01:57:00,
2013-02-19 21:02:00,34.9,33.6,29.57,NE,52,0.0,0.0,95,0.00,,,0.00,Wunderground v.1.13,2013-02-20 02:02:00,
2013-02-19 21:12:00,34.6,33.3,29.56,NE,52,0.0,0.0,95,0.00,,,0.00,Wunderground v.1.13,2013-02-20 02:12:00,
2013-02-19 21:17:00,34.6,33.3,29.56,NE,52,0.0,1.0,95,0.00,,,0.00,Wunderground v.1.13,2013-02-20 02:17:00,
2013-02-19 21:22:00,34.6,33.6,29.54,NE,52,0.0,0.0,96,0.00,,,0.00,Wunderground v.1.13,2013-02-20 02:22:00,
2013-02-19 21:27:00,34.6,33.8,29.54,NE,52,0.0,0.0,97,0.00,,,0.00,Wunderground v.1.13,2013-02-20 02:27:00,
2013-02-19 21:32:00,34.6,33.8,29.54,NE,52,0.0,0.0,97,0.00,,,0.00,Wunderground v.1.13,2013-02-20 02:32:00,
2013-02-19 21:37:00,34.6,33.8,29.52,NE,52,0.0,0.0,97,0.00,,,0.00,Wunderground v.1.13,2013-02-20 02:37:00,
2013-02-19 21:47:00,34.4,33.6,29.52,NE,52,0.0,0.0,97,0.00,,,0.00,Wunderground v.1.13,2013-02-20 02:47:00,
2013-02-19 21:52:00,34.4,33.9,29.52,NE,52,0.0,0.0,98,0.00,,,0.00,Wunderground v.1.13,2013-02-20 02:52:00,
2013-02-19 21:57:00,34.4,33.9,29.52,NE,52,0.0,0.0,98,0.00,,,0.00,Wunderground v.1.13,2013-02-20 02:57:00,
2013-02-19 22:02:00,34.3,33.8,29.52,NE,52,0.0,0.0,98,0.00,,,0.00,Wunderground v.1.13,2013-02-20 03:02:00,
2013-02-19 22:07:00,34.3,33.8,29.52,NE,52,0.0,0.0,98,0.00,,,0.00,Wunderground v.1.13,2013-02-20 03:07:00,
2013-02-19 22:12:00,34.1,33.6,29.52,NE,52,0.0,0.0,98,0.00,,,0.00,Wunderground v.1.13,2013-02-20 03:12:00,
2013-02-19 22:17:00,34.1,33.6,29.52,NE,52,0.0,0.0,98,0.00,,,0.00,Wunderground v.1.13,2013-02-20 03:17:00,
2013-02-19 22:22:00,34.1,33.6,29.52,NE,52,0.0,0.0,98,0.00,,,0.00,Wunderground v.1.13,2013-02-20 03:22:00,
2013-02-19 22:27:00,34.1,33.8,29.52,NE,52,0.0,0.0,99,0.00,,,0.00,Wunderground v.1.13,2013-02-20 03:27:00,
2013-02-19 22:32:00,34.1,33.8,29.52,NE,52,0.0,0.0,99,0.00,,,0.00,Wunderground v.1.13,2013-02-20 03:32:00,
2013-02-19 22:37:00,34.1,33.8,29.52,NE,52,0.0,0.0,99,0.00,,,0.00,Wunderground v.1.13,2013-02-20 03:37:00,
2013-02-19 22:42:00,34.0,33.7,29.52,NE,52,0.0,0.0,99,0.00,,,0.00,Wunderground v.1.13,2013-02-20 03:42:00,
2013-02-19 22:52:00,34.1,33.8,29.51,NE,52,0.0,0.0,99,0.00,,,0.00,Wunderground v.1.13,2013-02-20 03:52:00,
2013-02-19 22:57:00,34.0,33.7,29.51,NE,52,0.0,0.0,99,0.00,,,0.00,Wunderground v.1.13,2013-02-20 03:57:00,
2013-02-19 23:03:00,33.8,33.8,29.51,NE,52,0.0,0.0,100,0.00,,,0.00,Wunderground v.1.13,2013-02-20 04:03:00,
2013-02-19 23:12:00,34.0,34.0,29.50,NE,52,0.0,0.0,100,0.00,,,0.00,Wunderground v.1.13,2013-02-20 04:12:00,
2013-02-19 23:22:00,33.8,33.8,29.49,NE,52,0.0,0.0,100,0.00,,,0.00,Wunderground v.1.13,2013-02-20 04:22:00,
2013-02-19 23:27:00,33.8,33.8,29.49,NE,52,0.0,0.0,100,0.00,,,0.00,Wunderground v.1.13,2013-02-20 04:27:00,
2013-02-19 23:32:00,33.8,33.8,29.49,NE,52,0.0,0.0,100,0.00,,,0.00,Wunderground v.1.13,2013-02-20 04:32:00,
2013-02-19 23:37:00,33.7,33.7,29.48,NE,52,0.0,0.0,100,0.00,,,0.00,Wunderground v.1.13,2013-02-20 04:37:00,
2013-02-19 23:42:00,33.7,33.7,29.48,NE,52,0.0,0.0,100,0.00,,,0.00,Wunderground v.1.13,2013-02-20 04:42:00,
2013-02-19 23:47:00,33.7,33.7,29.48,NE,52,0.0,0.0,100,0.00,,,0.00,Wunderground v.1.13,2013-02-20 04:47:00,
2013-02-19 23:52:00,33.5,33.5,29.47,NE,52,0.0,0.0,100,0.00,,,0.00,Wunderground v.1.13,2013-02-20 04:52:00,
2013-02-19 23:57:00,33.5,33.5,29.47,NE,52,0.0,0.0,100,0.00,,,0.00,Wunderground v.1.13,2013-02-20 04:57:00,